Regional Weather Roundup
Issued by NWS

Home | Current Version | Previous Version | Graphics & Text | Print | Product List | Glossary On
Versions: 1 2 3 4 5 6 7 8 9 10 11 12 13 14 15 16 17 18 19 20 21 22 23 24 25 26 27 28 29 30 31 32 33 34 35 36 37 38 39 40 41 42 43 44 45 46 47 48 49 50
000
ASUS43 KDMX 241807
RWRIA

WEATHER ROUNDUP FOR IOWA
NATIONAL WEATHER SERVICE DES MOINES IA
100 PM CDT THU JUL 24 2014

NOTE: "FAIR" INDICATES FEW OR NO CLOUDS BELOW 12,000 FEET WITH NO
SIGNIFICANT WEATHER AND/OR OBSTRUCTIONS TO VISIBILITY.

* - THESE STATIONS ARE NOT NWS STATIONS...THUS NOT UNDER NWS
QUALITY CONTROL.  THEY ALSO DO NOT REPORT WEATHER SUCH
AS PRECIPITATION OR FOG.

IAZ001>003-012>014-020>022-031>034-043>046-241900-
   NORTHWEST IOWA

CITY           SKY/WX    TMP DP  RH WIND       PRES   REMARKS
CARROLL *      SUNNY     73  61  64 VRB6G16   30.11R
CHEROKEE *     CLOUDY    67  61  83 E3        30.10F
DENISON *      SUNNY     75  59  57 S12G18    30.09R
LE MARS *      CLOUDY    72  61  68 SE10G18   30.05F
ORANGE CITY *  LGT RAIN  68  61  77 N12       30.14R VSB 3/4
SHELDON *      CLOUDY    66  63  88 VRB6      30.13R
SIOUX CITY     PTSUNNY   77  64  64 SE14G20   30.03F
6HR MIN TEMP:  64; 6HR MAX TEMP:  77; 6HR PCP:  0.09;

SPENCER        CLOUDY    73  58  59 SW6       30.13R
6HR MIN TEMP:  59; 6HR MAX TEMP:  77;

STORM LAKE *   SUNNY     70  59  68 S10G18    30.09F
$$

IAZ055>058-069>071-079>083-090>094-241900-
   SOUTHWEST IOWA

CITY           SKY/WX    TMP DP  RH WIND       PRES   REMARKS
ATLANTIC *     SUNNY     73  61  64 S15G22    30.07S
AUDUBON *      SUNNY     75  66  73 S10G22    30.09R
CLARINDA *     SUNNY     77  59  53 S15G22    30.11F
COUNCIL BLFS * SUNNY     77  64  65 S20G28    30.05F
CRESTON *      SUNNY     72  61  68 S13G20    30.11F
HARLAN  *      SUNNY     72  61  68 S18G28    30.08S
LAMONI         CLOUDY    75  57  53 S5        30.17F
6HR MIN TEMP:  62; 6HR MAX TEMP:  76;

RED OAK *      SUNNY     75  61  60 S17G26    30.05F
SHENANDOAH *   SUNNY     77  61  57 S18       30.09F
$$

IAZ047>049-059>061-072>074-084-241900-
   CENTRAL IOWA

CITY           SKY/WX    TMP DP  RH WIND       PRES   REMARKS
AMES           MOSUNNY   77  61  57 S12       30.10F
6HR MIN TEMP:  59; 6HR MAX TEMP:  78;

ANKENY *       MOSUNNY   77  59  53 SE17      30.10F
CHARITON *     SUNNY     75  59  57 S7        30.14F
DES MOINES     CLOUDY    80  59  48 SE17      30.10F HX  81
6HR MIN TEMP:  64; 6HR MAX TEMP:  80;

GRINNELL*      CLOUDY    77  59  53 SE7       30.15F
KNOXVILLE *    MOSUNNY   77  59  53 S8        30.13F
MARSHALLTOWN   MOSUNNY   78  60  53 SE9       30.12F
6HR MIN TEMP:  60; 6HR MAX TEMP:  78;

PELLA *        CLOUDY    79  60  51 S12       30.15F HX  80
PERRY *          N/A     77  61  57 SE17G23   30.06F
$$

IAZ004>006-015-016-023>025-035-036-241900-
   NORTH CENTRAL IOWA

CITY           SKY/WX    TMP DP  RH WIND       PRES   REMARKS
ALGONA *       SUNNY     75  59  57 S10       30.12R
CLARION *      SUNNY     77  59  53 S14       30.10F
ESTHERVILLE    CLOUDY    72  58  61 S8        30.12R
6HR MIN TEMP:  55; 6HR MAX TEMP:  75;

FORT DODGE *   PTSUNNY   75  61  60 S8        30.13R
MASON CITY     MOSUNNY   79  59  50 SE13      30.10F HX  80
6HR MIN TEMP:  55; 6HR MAX TEMP:  79;

FOREST CITY *  PTSUNNY   77  59  53 SE8       30.10F
IOWA FALLS *     N/A     77  61  57 SE8       30.11F
$$

IAZ007>011-017>019-026>030-037>042-050>054-066-241900-
   NORTHEAST IOWA

CITY           SKY/WX    TMP DP  RH WIND       PRES   REMARKS
CEDAR RAPIDS   MOSUNNY   75  59  57 SE8       30.15F
6HR MIN TEMP:  60; 6HR MAX TEMP:  76;

CHARLES CITY * MOSUNNY   77  55  47 SW7G14    30.11F
CLINTON *      SUNNY     73  54  49 E5        30.20S
DECORAH *      MOSUNNY   75  57  53 S6        30.12F
DUBUQUE        SUNNY     73  59  61 SW7       30.17F
6HR MIN TEMP:  58; 6HR MAX TEMP:  74;

MONTICELLO *   SUNNY     75  59  57 VRB6      30.16F
OELWEIN *      MOSUNNY   77  57  50 VRB3      30.13F
WATERLOO       PTSUNNY   77  57  50 SW6       30.11F
6HR MIN TEMP:  57; 6HR MAX TEMP:  79;

$$

IAZ064-065-067-068-078-241900-
   EAST CENTRAL IOWA

CITY           SKY/WX    TMP DP  RH WIND       PRES   REMARKS
DAVENPORT      MOSUNNY   75  53  46 CALM      30.17F
6HR MIN TEMP:  57; 6HR MAX TEMP:  75;

IOWA CITY      MOSUNNY   75  59  57 SW5       30.18F
6HR MIN TEMP:  61; 6HR MAX TEMP:  76;

MT. PLEASANT * PTSUNNY   76  54  46 SE5       30.17F
MUSCATINE *    MOSUNNY   77  55  47 SW7       30.17S
QUAD CITIES    SUNNY     77  54  44 E7        30.17S
6HR MIN TEMP:  58; 6HR MAX TEMP:  77;

$$

IAZ062-063-075>077-085>089-095>099-241900-
   SOUTHEAST IOWA

CITY           SKY/WX    TMP DP  RH WIND       PRES   REMARKS
BURLINGTON     MOSUNNY   76  54  46 VRB6      30.17F
6HR MIN TEMP:  62; 6HR MAX TEMP:  77;

FAIRFIELD *    SUNNY     75  59  57 SE7       30.17F
FORT MADISON * SUNNY     75  55  50 SE5       30.18F
KEOKUK *       SUNNY     75  54  46 VRB5G12   30.17S
OSKALOOSA *    PTSUNNY   76  62  61 SE7       30.15F
CENTERVILLE *  SUNNY     75  61  60 SE3       30.18F
OTTUMWA        PTSUNNY   77  61  57 VRB6      30.16F
6HR MIN TEMP:  61; 6HR MAX TEMP:  77;

WASHINGTON *   SUNNY     75  59  57 S8        30.17F
$$

ABBREVIATIONS USED IN REMARKS
   TC - TEMPERATURES IN CELSIUS
  WCI - WIND CHILL INDEX
   HX - HEAT INDEX
  VSB - VISIBILITY
$$



USA.gov is the U.S. government's official web portal to all federal, state and local government web resources and services.